This is the latest recevied weather packets stored in our database for station/object WA1OUI. If no packets are shown the sender has not sent any weather packets the latest 10 day(s).
| Time | Temp. | Humidity | Pressure | Rain* | Wind** | Luminosity | Snow |
|---|---|---|---|---|---|---|---|
| 1778098655 | 15° C | 96% | 1005 hPa | 0 mm | - | 51 W/m² | - |
| 1778098352 | 15° C | 96% | 1004.9 hPa | 0 mm | - | 40 W/m² | - |
| 1778098049 | 15° C | 96% | 1004.9 hPa | 0.51 mm | - | 33 W/m² | - |
| 1778097746 | 15° C | 96% | 1005.2 hPa | 1.27 mm | - | 41 W/m² | - |
| 1778097442 | 15° C | 95% | 1005.2 hPa | 0.51 mm | - | 28 W/m² | - |
| 1778097139 | 15° C | 95% | 1005.2 hPa | 0 mm | - | 35 W/m² | - |
| 1778096836 | 15° C | 95% | 1005.2 hPa | 0 mm | - | 35 W/m² | - |
| 1778096532 | 15° C | 95% | 1005.2 hPa | 0 mm | - | 54 W/m² | - |
| 1778096230 | 15° C | 95% | 1005.1 hPa | 0.51 mm | - | 83 W/m² | - |
| 1778095927 | 15° C | 95% | 1005.3 hPa | 0.51 mm | - | 90 W/m² | - |
| 1778095624 | 15° C | 95% | 1005.4 hPa | 0 mm | - | 109 W/m² | - |
| 1778095320 | 15° C | 94% | 1005.4 hPa | 0 mm | - | 99 W/m² | - |
| 1778095017 | 15° C | 95% | 1005.4 hPa | 0 mm | - | 94 W/m² | - |
| 1778094713 | 15° C | 94% | 1005.4 hPa | 0 mm | - | 84 W/m² | - |
| 1778094410 | 15° C | 95% | 1005.4 hPa | 0.51 mm | - | 97 W/m² | - |
| 1778094107 | 15° C | 94% | 1005.5 hPa | 0.51 mm | - | 128 W/m² | - |
| 1778093804 | 15° C | 94% | 1005.4 hPa | 0 mm | - | 124 W/m² | - |
| 1778093500 | 15° C | 94% | 1005.5 hPa | 0 mm | - | 80 W/m² | - |
| 1778093198 | 15° C | 94% | 1005.6 hPa | 0 mm | - | 52 W/m² | - |
| 1778092895 | 15° C | 94% | 1005.7 hPa | 0.51 mm | - | 79 W/m² | - |
| 1778092592 | 15° C | 94% | 1005.9 hPa | 0.51 mm | - | 81 W/m² | - |
| 1778092287 | 15° C | 94% | 1005.8 hPa | 0.51 mm | - | 103 W/m² | - |
| 1778091985 | 15° C | 94% | 1005.7 hPa | 1.27 mm | - | 135 W/m² | - |
| 1778091682 | 15° C | 93% | 1005.8 hPa | 1.27 mm | - | 123 W/m² | - |
| 1778091380 | 15° C | 93% | 1005.9 hPa | 1.27 mm | - | 111 W/m² | - |
* Rain latest hour (hover to see other rain measurements)
** Current wind speed in m/s (hover to see current wind gust speed)